403P/Catalina (2020)

Japanese version
Home page
Updated on January 12, 2021

---------------------------------------------------------------------

* Profile

Designation 403P/2020 T1
Recovery Date October 15, 2020
Magnitude 19.7 mag
Recoverer G. J. Leonard (Mt. Lemmon)

* Pictures

* Orbital Elements

Epoch 2020 Sept. 28.0 TT = JDT 2459120.5                                        
T 2020 Sept. 16.38267 TT                                Rudenko                 
q   2.6952696            (2000.0)            P               Q                  
n   0.07799194     Peri.  277.67421     +0.14160054     -0.98813605             
a   5.4254558      Node   163.81699     +0.97138786     +0.12712745             
e   0.5032179      Incl.   12.31997     +0.19066967     +0.08617279             
P  12.6                                                                         
From 102 observations 2007 Nov. 3-2020 Oct. 17, mean residual 0".9.             

* Magnitudes Graph

        m1 = 13.5 + 5 log d + 10.0 log r

---------------------------------------------------------------------

The orbital elements are published on M.P.E.C. 2020-U169.
The magnitudes graphs are made with Comet for Windows.

---------------------------------------------------------------------

Copyright(C) Seiichi Yoshida (comet@aerith.net). All rights reserved.